Regional Weather Roundup
Issued by NWS

Home | Current Version | Previous Version | Graphics & Text | Print | Product List | Glossary On
Versions: 1 2 3 4 5 6 7 8 9 10 11 12 13 14 15 16 17 18 19 20 21 22 23 24 25 26 27 28 29 30 31 32 33 34 35 36 37 38 39 40 41 42 43 44 45 46 47 48 49 50
000
ASUS45 KCYS 021210
RWRWY

WYOMING REGIONAL WEATHER ROUNDUP
NATIONAL WEATHER SERVICE CHEYENNE WY
600 AM MDT SUN AUG 02 2015

NOTE:  "FAIR" INDICATES FEW OR NO CLOUDS BELOW 12,000 FEET
WITH NO SIGNIFICANT WEATHER AND/OR OBSTRUCTIONS TO VISIBILITY.

WYZ001-021300-
YELLOWSTONE NATIONAL PARK

CITY           SKY/WX    TMP DP  RH WIND       PRES   REMARKS
LK YELLOWSTONE   N/A     39  34  82 CALM      30.34R
6HR MIN TEMP:  39; 6HR MAX TEMP:  48;

W YELLOWSTONE  NOT AVBL

$$
WYZ002>013-054>058-071-098>099-021300-
NORTHERN WYOMING

CITY           SKY/WX    TMP DP  RH WIND       PRES   REMARKS
JACKSON        NOT AVBL
CODY           FAIR      68  34  28 S6        30.07R
GREYBULL       FAIR      59  37  44 CALM      29.99R
6HR MIN TEMP:  57; 6HR MAX TEMP:  76;

WORLAND        FAIR      53  28  38 S6        30.01R
6HR MIN TEMP:  51; 6HR MAX TEMP:  68;

SHERIDAN       FAIR      58  42  55 CALM      29.97R
6HR MIN TEMP:  57; 6HR MAX TEMP:  88;

BUFFALO        FAIR      67  31  26 CALM      30.05R
6HR MIN TEMP:  64; 6HR MAX TEMP:  75;

GILLETTE       FAIR      71  31  22 W10       29.98S
6HR MIN TEMP:  59; 6HR MAX TEMP:  72;

HULETT         FAIR      61  54  77 S5        30.01R
NEWCASTLE      FAIR      59  50  72 MISG      30.00S

$$
WYZ014>020-022>026-101>103-021300-
CENTRAL WYOMING

CITY           SKY/WX    TMP DP  RH WIND       PRES   REMARKS
BIG PINEY      FAIR      47  29  49 E3        30.24S
6HR MIN TEMP:  44; 6HR MAX TEMP:  58;

PINEDALE       FAIR      43  34  70 NW7       30.25R
DUBOIS         FAIR      48  28  46 NW12      30.27R
LANDER         FAIR      64  29  26 VRB3      30.11R
6HR MIN TEMP:  60; 6HR MAX TEMP:  73;

RIVERTON       FAIR      59  34  39 W12       30.12R
6HR MIN TEMP:  59; 6HR MAX TEMP:  69;

CASPER         FAIR      54  29  38 SW7       30.09S
6HR MIN TEMP:  51; 6HR MAX TEMP:  63;

DOUGLAS        FAIR      55  50  83 NW5       30.07R
6HR MIN TEMP:  54; 6HR MAX TEMP:  69;


$$
WYZ021-027>030-104>119-021300-
SOUTHERN WYOMING

CITY           SKY/WX    TMP DP  RH WIND       PRES   REMARKS
EVANSTON       FAIR      59  29  31 E8        30.23R
6HR MIN TEMP:  57; 6HR MAX TEMP:  68;

KEMMERER       FAIR      50  30  46 N8        30.25S
FORT BRIDGER   SUNNY     59  27  29 W8        30.24S
ROCK SPRINGS   FAIR      58  25  28 W6        30.19S
6HR MIN TEMP:  56; 6HR MAX TEMP:  68;

DIXON          FAIR      55  37  52 CALM      30.23R
RAWLINS        FAIR      51  36  56 VRB3      30.20R
6HR MIN TEMP:  50; 6HR MAX TEMP:  69;

SARATOGA       FAIR      50  34  53 S8        30.23R
LARAMIE        FAIR      47  41  80 E5        30.23R
6HR MIN TEMP:  47; 6HR MAX TEMP:  62;

CHEYENNE       FAIR      58  49  72 W7        30.12S
6HR MIN TEMP:  57; 6HR MAX TEMP:  66;

TORRINGTON     FAIR      58  53  84 NW3       30.00R
6HR MIN TEMP:  56; 6HR MAX TEMP:  63;

PINE BLUFFS    FAIR      52  50  93 CALM      30.07S

$$


USA.gov is the U.S. government's official web portal to all federal, state and local government web resources and services.